H1 CPF 2 NER 2023 3 25 9 084 01 glonass134 H2 1407501 9134 40315 2023 3 25 0 0 0 2023 3 28 23 45 0 900 1 1 0 0 0 1 H9 10 0 60028 0.00000 0 9437390.213 -6359378.845 -22817432.459 10 0 60028 900.00000 0 11342464.480 -4317639.730 -22430975.587 10 0 60028 1800.00000 0 13331535.519 -2466405.071 -21608688.148 10 0 60028 2700.00000 0 15347273.882 -841032.330 -20366829.801 10 0 60028 3600.00000 0 17328088.203 534402.083 -18729774.120 10 0 60028 4500.00000 0 19210584.139 1647855.160 -16729517.028 10 0 60028 5400.00000 0 20932111.459 2499557.207 -14405041.387 10 0 60028 6300.00000 0 22433293.632 3101732.478 -11801550.854 10 0 60028 7200.00000 0 23660435.314 3477815.145 -8969588.397 10 0 60028 8100.00000 0 24567708.577 3661195.997 -5964056.666 10 0 60028 9000.00000 0 25119028.129 3693554.379 -2843159.037 10 0 60028 9900.00000 0 25289538.773 3622846.739 332718.624 10 0 60028 10800.00000 0 25066654.418 3501036.972 3502164.527 10 0 60028 11700.00000 0 24450606.464 3381664.085 6603914.486 10 0 60028 12600.00000 0 23454479.392 3317349.094 9578020.763 10 0 60028 13500.00000 0 22103732.419 3357345.361 12366994.939 10 0 60028 14400.00000 0 20435226.879 3545234.621 14916904.057 10 0 60028 15300.00000 0 18495799.081 3916864.903 17178400.183 10 0 60028 16200.00000 0 16340436.835 4498616.671 19107664.743 10 0 60028 17100.00000 0 14030133.789 5306070.133 20667250.513 10 0 60028 18000.00000 0 11629508.974 6343130.416 21826805.716 10 0 60028 18900.00000 0 9204288.442 7601648.745 22563666.723 10 0 60028 19800.00000 0 6818751.764 9061557.567 22863307.838 10 0 60028 20700.00000 0 4533247.855 10691516.599 22719638.934 10 0 60028 21600.00000 0 2401882.183 12450045.715 22135144.164 10 0 60028 22500.00000 0 470470.807 14287100.393 21120857.557 10 0 60028 23400.00000 0 -1225153.681 16146026.680 19696174.094 10 0 60028 24300.00000 0 -2660413.387 17965816.338 17888497.865 10 0 60028 25200.00000 0 -3822779.700 19683569.572 15732731.957 10 0 60028 26100.00000 0 -4712056.996 21237063.069 13270618.020 10 0 60028 27000.00000 0 -5340142.663 22567315.697 10549936.703 10 0 60028 27900.00000 0 -5730272.719 23621043.343 7623583.371 10 0 60028 28800.00000 0 -5915784.487 24352898.108 4548536.646 10 0 60028 29700.00000 0 -5938448.714 24727395.609 1384740.101 10 0 60028 30600.00000 0 -5846442.506 24720446.912 -1806080.226 10 0 60028 31500.00000 0 -5692050.376 24320428.317 -4961637.854 10 0 60028 32400.00000 0 -5529192.823 23528742.034 -8020321.648 10 0 60028 33300.00000 0 -5410889.680 22359842.796 -10922419.087 10 0 60028 34200.00000 0 -5386768.371 20840728.687 -13611300.869 10 0 60028 35100.00000 0 -5500725.195 19009917.772 -16034541.782 10 0 60028 36000.00000 0 -5788840.981 16915954.317 -18144954.355 10 0 60028 36900.00000 0 -6277641.009 14615508.669 -19901514.057 10 0 60028 37800.00000 0 -6982773.901 12171152.049 -21270157.542 10 0 60028 38700.00000 0 -7908165.700 9648900.966 -22224438.614 10 0 60028 39600.00000 0 -9045684.654 7115635.304 -22746029.816 10 0 60028 40500.00000 0 -10375330.133 4636498.662 -22825061.173 10 0 60028 41400.00000 0 -11865936.757 2272389.529 -22460291.018 10 0 60028 42300.00000 0 -13476362.970 77647.254 -21659107.338 10 0 60028 43200.00000 0 -15157113.088 -1901972.216 -20437361.396 10 0 60028 44100.00000 0 -16852323.935 -3630948.647 -18819038.496 10 0 60028 45000.00000 0 -18502032.252 -5085211.687 -16835773.777 10 0 60028 45900.00000 0 -20044627.801 -6252869.363 -14526223.578 10 0 60028 46800.00000 0 -21419389.806 -7134423.710 -11935305.401 10 0 60028 47700.00000 0 -22569001.273 -7742467.656 -9113321.737 10 0 60028 48600.00000 0 -23441937.060 -8100878.667 -6114984.863 10 0 60028 49500.00000 0 -23994627.070 -8243545.305 -2998361.357 10 0 60028 50400.00000 0 -24193305.437 -8212681.814 176243.675 10 0 60028 51300.00000 0 -24015469.712 -8056802.631 3347441.762 10 0 60028 52200.00000 0 -23450890.112 -7828442.318 6453934.249 10 0 60028 53100.00000 0 -22502127.438 -7581716.675 9435681.855 10 0 60028 54000.00000 0 -21184538.317 -7369827.017 12235049.295 10 0 60028 54900.00000 0 -19525767.311 -7242611.739 14797904.186 10 0 60028 55800.00000 0 -17564746.287 -7244247.270 17074650.308 10 0 60028 56700.00000 0 -15350241.413 -7411194.333 19021176.547 10 0 60028 57600.00000 0 -12939006.461 -7770475.453 20599704.286 10 0 60028 58500.00000 0 -10393617.119 -8338356.224 21779517.661 10 0 60028 59400.00000 0 -7780074.055 -9119486.497 22537563.024 10 0 60028 60300.00000 0 -5165272.010 -10106538.976 22858906.027 10 0 60028 61200.00000 0 -2614438.037 -11280362.468 22737036.961 10 0 60028 62100.00000 0 -188643.607 -12610645.938 22174017.441 10 0 60028 63000.00000 0 2057507.192 -14057068.357 21180464.120 10 0 60028 63900.00000 0 4077917.747 -15570889.019 19775367.864 10 0 60028 64800.00000 0 5836682.364 -17096914.227 17985749.855 10 0 60028 65700.00000 0 7309342.358 -18575759.906 15846159.097 10 0 60028 66600.00000 0 8483661.449 -19946316.500 13398019.118 10 0 60028 67500.00000 0 9359887.014 -21148313.020 10688834.917 10 0 60028 68400.00000 0 9950485.349 -22124871.980 7771274.384 10 0 60028 69300.00000 0 10279361.454 -22824946.393 4702141.641 10 0 60028 70200.00000 0 10380596.132 -23205534.211 1541262.449 10 0 60028 71100.00000 0 10296754.218 -23233574.524 -1649695.705 10 0 60028 72000.00000 0 10076836.606 -22887443.069 -4808444.325 10 0 60028 72900.00000 0 9773964.540 -22157981.673 -7873309.662 10 0 60028 73800.00000 0 9442896.485 -21049016.381 -10784457.262 10 0 60028 74700.00000 0 9137485.295 -19577341.182 -13485079.111 10 0 60028 75600.00000 0 8908185.956 -17772167.524 -15922518.233 10 0 60028 76500.00000 0 8799721.773 -15674062.979 -18049307.173 10 0 60028 77400.00000 0 8849009.666 -13333424.434 -19824098.974 10 0 60028 78300.00000 0 9083433.561 -10808551.104 -21212472.053 10 0 60028 79200.00000 0 9519539.436 -8163399.373 -22187593.420 10 0 60028 80100.00000 0 10162206.982 -5465114.708 -22730728.070 10 0 60028 81000.00000 0 11004332.115 -2781444.582 -22831585.821 10 0 60028 81900.00000 0 12027032.582 -178140.692 -22488500.424 10 0 60028 82800.00000 0 13200366.645 2283541.554 -21708439.182 10 0 60028 83700.00000 0 14484533.154 4549143.201 -20506844.673 10 0 60028 84600.00000 0 15831501.377 6573007.591 -18907313.326 10 0 60028 85500.00000 0 17187001.115 8319910.687 -16941118.544 10 0 60029 0.00000 0 18492788.908 9766250.712 -14646589.064 10 0 60029 900.00000 0 19689095.837 10900751.344 -12068354.155 10 0 60029 1800.00000 0 20717152.842 11724650.394 -9256473.973 10 0 60029 2700.00000 0 21521690.727 12251371.640 -6265468.015 10 0 60029 3600.00000 0 22053309.314 12505694.177 -3153263.330 10 0 60029 4500.00000 0 22270618.363 12522456.983 19918.731 10 0 60029 5400.00000 0 22142061.639 12344854.344 3192716.175 10 0 60029 6300.00000 0 21647348.821 12022394.479 6303799.102 10 0 60029 7200.00000 0 20778436.075 11608607.269 9293039.886 10 0 60029 8100.00000 0 19540014.629 11158597.020 12102659.468 10 0 60029 9000.00000 0 17949486.765 10726542.338 14678328.947 10 0 60029 9900.00000 0 16036429.456 10363247.212 16970206.514 10 0 60029 10800.00000 0 13841566.699 10113845.226 18933890.956 10 0 60029 11700.00000 0 11415291.480 10015752.577 20531274.438 10 0 60029 12600.00000 0 8815796.659 10096955.462 21731278.864 10 0 60029 13500.00000 0 6106889.955 10374703.951 22510462.087 10 0 60029 14400.00000 0 3355581.243 10854667.903 22853482.238 10 0 60029 15300.00000 0 629539.974 11530591.824 22753410.717 10 0 60029 16200.00000 0 -2005473.801 12384465.129 22211886.809 10 0 60029 17100.00000 0 -4488099.701 13387203.078 21239109.465 10 0 60029 18000.00000 0 -6763686.021 14499812.419 19853664.573 10 0 60029 18900.00000 0 -8786321.759 15674995.285 18082189.008 10 0 60029 19800.00000 0 -10520506.774 16859126.189 15958875.800 10 0 60029 20700.00000 0 -11942389.610 17994520.524 13524828.052 10 0 60029 21600.00000 0 -13040520.258 19021899.948 10827272.467 10 0 60029 22500.00000 0 -13816085.248 19882950.730 7918646.583 10 0 60029 23400.00000 0 -14282614.308 20522866.252 4855576.979 10 0 60029 24300.00000 0 -14465170.502 20892764.725 1697768.484 10 0 60029 25200.00000 0 -14399058.053 20951877.780 -1493173.119 10 0 60029 26100.00000 0 -14128103.197 20669414.962 -4654960.432 10 0 60029 27000.00000 0 -13702582.126 20026022.862 -7725860.129 10 0 60029 27900.00000 0 -13176885.685 19014774.971 -10645918.712 10 0 60029 28800.00000 0 -12607022.004 17641648.789 -13358152.139 10 0 60029 29700.00000 0 -12048065.297 15925468.947 -15809674.102 10 0 60029 30600.00000 0 -11551661.160 13897318.336 -17952739.290 10 0 60029 31500.00000 0 -11163695.942 11599442.300 -19745680.137 10 0 60029 32400.00000 0 -10922230.141 9083692.638 -21153718.295 10 0 60029 33300.00000 0 -10855783.874 6409577.708 -22149635.138 10 0 60029 34200.00000 0 -10982046.825 3642001.374 -22714288.920 10 0 60029 35100.00000 0 -11307066.361 848786.226 -22836969.726 10 0 60029 36000.00000 0 -11824946.842 -1901915.068 -22515586.829 10 0 60029 36900.00000 0 -12518071.139 -4544212.351 -21756686.571 10 0 60029 37800.00000 0 -13357833.306 -7016967.232 -20575302.177 10 0 60029 38700.00000 0 -14305849.842 -9266076.760 -18994640.120 10 0 60029 39600.00000 0 -15315597.153 -11246458.431 -17045610.620 10 0 60029 40500.00000 0 -16334405.270 -12923656.399 -14766212.583 10 0 60029 41400.00000 0 -17305723.436 -14275004.870 -12200785.788 10 0 60029 42300.00000 0 -18171562.218 -15290303.173 -9399145.374 10 0 60029 43200.00000 0 -18875009.886 -15971977.330 -6415615.581 10 0 60029 44100.00000 0 -19362718.112 -16334724.099 -3307981.332 10 0 60029 45000.00000 0 -19587253.558 -16404654.691 -136377.539 10 0 60029 45900.00000 0 -19509217.767 -16217975.763 3037863.040 10 0 60029 46800.00000 0 -19099047.448 -15819264.097 6153382.069 10 0 60029 47700.00000 0 -18338420.483 -15259407.777 9149966.407 10 0 60029 48600.00000 0 -17221209.218 -14593300.154 11969696.024 10 0 60029 49500.00000 0 -15753941.058 -13877382.727 14558048.230 10 0 60029 50400.00000 0 -13955746.505 -13167139.142 16864938.191 10 0 60029 51300.00000 0 -11857795.548 -12514644.358 18845676.921 10 0 60029 52200.00000 0 -9502244.071 -11966270.747 20461829.379 10 0 60029 53100.00000 0 -6940731.884 -11560646.595 21681956.885 10 0 60029 54000.00000 0 -4232492.183 -11326952.207 22482230.023 10 0 60029 54900.00000 0 -1442148.228 -11283625.268 22846900.220 10 0 60029 55800.00000 0 1362713.973 -11437530.518 22768620.383 10 0 60029 56700.00000 0 4114098.641 -11783629.953 22248607.473 10 0 60029 57600.00000 0 6746174.860 -12305169.235 21296642.388 10 0 60029 58500.00000 0 9197767.252 -12974374.685 19930905.351 10 0 60029 59400.00000 0 11414659.834 -13753633.833 18177647.923 10 0 60029 60300.00000 0 13351617.173 -14597112.042 16070705.841 10 0 60029 61200.00000 0 14974037.950 -15452738.803 13650860.145 10 0 60029 62100.00000 0 16259170.875 -16264481.115 10965057.274 10 0 60029 63000.00000 0 17196840.878 -16974808.316 8065502.132 10 0 60029 63900.00000 0 17789653.944 -17527243.723 5008641.173 10 0 60029 64800.00000 0 18052671.152 -17868893.909 1854055.476 10 0 60029 65700.00000 0 18012565.290 -17952846.641 -1336713.860 10 0 60029 66600.00000 0 17706295.895 -17740333.579 -4501383.583 10 0 60029 67500.00000 0 17179359.620 -17202563.640 -7578163.811 10 0 60029 68400.00000 0 16483691.476 -16322146.981 -10506984.918 10 0 60029 69300.00000 0 15675307.766 -15094047.246 -13230689.593 10 0 60029 70200.00000 0 14811792.754 -13526020.309 -15696164.737 10 0 60029 71100.00000 0 13949737.713 -11638520.037 -17855389.494 10 0 60029 72000.00000 0 13142242.716 -9464074.800 -19666377.733 10 0 60029 72900.00000 0 12436588.320 -7046161.234 -21093996.093 10 0 60029 73800.00000 0 11872176.384 -4437623.229 -22110641.743 10 0 60029 74700.00000 0 11478827.074 -1698703.348 -22696767.292 10 0 60029 75600.00000 0 11275503.256 1105230.128 -22841243.834 10 0 60029 76500.00000 0 11269514.781 3906164.939 -22541556.571 10 0 60029 77400.00000 0 11456234.383 6636031.639 -21803830.948 10 0 60029 78300.00000 0 11819335.086 9229287.994 -20642690.575 10 0 60029 79200.00000 0 12331537.007 11625394.345 -19080951.404 10 0 60029 80100.00000 0 12955830.108 13771078.446 -17149159.574 10 0 60029 81000.00000 0 13647119.831 15622297.616 -14884983.158 10 0 60029 81900.00000 0 14354225.147 17145819.029 -12332470.475 10 0 60029 82800.00000 0 15022144.290 18320355.051 -9541189.925 10 0 60029 83700.00000 0 15594492.729 19137209.138 -6565268.237 10 0 60029 84600.00000 0 16016011.152 19600408.030 -3462345.634 10 0 60029 85500.00000 0 16235038.677 19726317.124 -292467.754 10 0 60030 0.00000 0 16205848.278 19542757.068 2883064.621 10 0 60030 900.00000 0 15890747.209 19087659.760 6002868.410 10 0 60030 1800.00000 0 15261855.163 18407321.068 9006647.801 10 0 60030 2700.00000 0 14302486.101 17554323.276 11836344.851 10 0 60030 3600.00000 0 13008075.921 16585214.018 14437246.007 10 0 60030 4500.00000 0 11386616.697 15558038.067 16759026.154 10 0 60030 5400.00000 0 9458578.281 14529824.243 18756711.065 10 0 60030 6300.00000 0 7256318.821 13554131.478 20391540.774 10 0 60030 7200.00000 0 4823006.535 12678755.714 21631718.017 10 0 60030 8100.00000 0 2211094.954 11943692.837 22453027.786 10 0 60030 9000.00000 0 -519587.906 11379442.561 22839316.094 10 0 60030 9900.00000 0 -3304059.961 11005724.495 22782818.225 10 0 60030 10800.00000 0 -6074625.632 10830660.887 22284329.193 10 0 60030 11700.00000 0 -8763437.587 10850461.598 21353211.687 10 0 60030 12600.00000 0 -11305074.977 11049626.203 20007239.549 10 0 60030 13500.00000 0 -13639032.047 11401656.619 18272277.758 10 0 60030 14400.00000 0 -15712013.909 11870252.225 16181802.968 10 0 60030 15300.00000 0 -17479943.369 12410938.820 13776271.903 10 0 60030 16200.00000 0 -18909594.112 12973063.920 11102348.142 10 0 60030 17100.00000 0 -19979780.671 13502074.724 8212001.080 10 0 60030 18000.00000 0 -20682053.876 13941982.218 5161494.032 10 0 60030 18900.00000 0 -21020871.352 14237906.140 2010281.224 10 0 60030 19800.00000 0 -21013235.088 14338591.327 -1180164.023 10 0 60030 20700.00000 0 -20687811.051 14198786.562 -4347565.669 10 0 60030 21600.00000 0 -20083568.442 13781382.559 -7430080.264 10 0 60030 22500.00000 0 -19247997.137 13059215.902 -10367524.927 10 0 60030 23400.00000 0 -18234980.343 12016460.165 -13102571.780 10 0 60030 24300.00000 0 -17102414.461 10649543.420 -15581883.429 10 0 60030 25200.00000 0 -15909678.958 8967551.975 -17757165.695 10 0 60030 26100.00000 0 -14715065.253 6992102.612 -19586115.777 10 0 60030 27000.00000 0 -13573274.890 4756688.544 -21033246.849 10 0 60030 27900.00000 0 -12533093.651 2305526.968 -22070573.040 10 0 60030 28800.00000 0 -11635340.054 -308042.747 -22678142.105 10 0 60030 29700.00000 0 -10911174.234 -3023542.328 -22844406.555 10 0 60030 30600.00000 0 -10380837.205 -5775635.733 -22566427.547 10 0 60030 31500.00000 0 -10052871.766 -8496612.441 -21849909.280 10 0 60030 32400.00000 0 -9923855.536 -11118969.416 -20709065.045 10 0 60030 33300.00000 0 -9978654.895 -13577984.699 -19166319.202 10 0 60030 34200.00000 0 -10191186.646 -15814176.593 -17251852.438 10 0 60030 35100.00000 0 -10525653.161 -17775547.716 -15003000.333 10 0 60030 36000.00000 0 -10938197.206 -19419522.595 -12463517.855 10 0 60030 36900.00000 0 -11378905.495 -20714500.518 -9682724.599 10 0 60030 37800.00000 0 -11794075.930 -21640961.498 -6714547.592 10 0 60030 38700.00000 0 -12128652.933 -22192081.785 -3616480.069 10 0 60030 39600.00000 0 -12328728.647 -22373835.580 -448476.034 10 0 60030 40500.00000 0 -12344005.426 -22204580.685 2728198.700 10 0 60030 41400.00000 0 -12130116.901 -21714146.912 5852137.656 10 0 60030 42300.00000 0 -11650710.846 -20942466.283 8862965.474 10 0 60030 43200.00000 0 -10879207.082 -19937802.632 11702488.890 10 0 60030 44100.00000 0 -9800156.902 -18754654.408 14315806.068 10 0 60030 45000.00000 0 -8410146.890 -17451417.651 16652354.123 10 0 60030 45900.00000 0 -6718208.451 -16087905.755 18666875.954 10 0 60030 46800.00000 0 -4745714.504 -14722828.388 20320288.818 10 0 60030 47700.00000 0 -2525765.566 -13411333.650 21580438.722 10 0 60030 48600.00000 0 -102088.239 -12202715.004 22422726.591 10 0 60030 49500.00000 0 2472511.032 -11138377.987 22830594.186 10 0 60030 50400.00000 0 5138075.673 -10250151.374 22795859.942 10 0 60030 51300.00000 0 7829735.007 -9559013.537 22318897.324 10 0 60030 52200.00000 0 10480156.361 -9074288.047 21408650.851 10 0 60030 53100.00000 0 13022113.475 -8793343.355 20082487.671 10 0 60030 54000.00000 0 15391065.871 -8701810.631 18365885.521 10 0 60030 54900.00000 0 17527642.498 -8774312.248 16291960.971 10 0 60030 55800.00000 0 19379926.009 -8975671.746 13900845.080 10 0 60030 56700.00000 0 20905441.513 -9262555.513 11238916.840 10 0 60030 57600.00000 0 22072765.365 -9585477.553 8357908.053 10 0 60030 58500.00000 0 22862684.987 -9891082.594 5313896.434 10 0 60030 59400.00000 0 23268859.486 -10124610.163 2166206.595 10 0 60030 60300.00000 0 23297952.001 -10232433.781 -1023758.942 10 0 60030 61200.00000 0 22969227.403 -10164565.579 -4193734.508 10 0 60030 62100.00000 0 22313632.127 -9877017.631 -7281826.271 10 0 60030 63000.00000 0 21372395.547 -9333917.254 -10227741.216 10 0 60030 63900.00000 0 20195213.117 -8509284.051 -12973983.843 10 0 60030 64800.00000 0 18838089.735 -7388391.213 -15466995.191 10 0 60030 65700.00000 0 17360936.387 -5968651.748 -17658210.203 10 0 60030 66600.00000 0 15825023.557 -4259991.085 -19505011.587 10 0 60030 67500.00000 0 14290400.626 -2284689.832 -20971560.930 10 0 60030 68400.00000 0 12813391.273 -76703.342 -22029490.909 10 0 60030 69300.00000 0 11444271.039 2319512.845 -22658445.698 10 0 60030 70200.00000 0 10225224.543 4850621.687 -22846460.175 10 0 60030 71100.00000 0 9188667.293 7456398.996 -22590172.078 10 0 60030 72000.00000 0 8356000.885 10072019.455 -21894864.655 10 0 60030 72900.00000 0 7736851.597 12630538.604 -20774340.824 10 0 60030 73800.00000 0 7328821.657 15065467.512 -19250632.968 10 0 60030 74700.00000 0 7117760.846 17313333.448 -17353555.575 10 0 60030 75600.00000 0 7078544.263 19316121.140 -15120110.639 10 0 60030 76500.00000 0 7176321.174 21023494.552 -12593758.309 10 0 60030 77400.00000 0 7368180.458 22394708.658 -9823567.543 10 0 60030 78300.00000 0 7605161.235 23400133.755 -6863263.466 10 0 60030 79200.00000 0 7834523.279 24022331.112 -3770189.795 10 0 60030 80100.00000 0 8002181.471 24256637.240 -604206.082 10 0 60030 81000.00000 0 8055202.100 24111234.372 2573459.570 10 0 60030 81900.00000 0 7944256.586 23606705.710 5701381.022 10 0 60030 82800.00000 0 7625930.164 22775095.066 8719106.272 10 0 60030 83700.00000 0 7064789.224 21658510.592 11568309.887 10 0 60030 84600.00000 0 6235120.937 20307330.805 14193904.784 10 0 60030 85500.00000 0 5122272.272 18778087.170 16545093.193 10 0 60031 0.00000 0 3723531.928 17131110.697 18576337.643 10 0 60031 900.00000 0 2048516.359 15428038.482 20248235.414 10 0 60031 1800.00000 0 119043.919 13729284.989 21528277.748 10 0 60031 2700.00000 0 -2031502.483 12091579.150 22391483.340 10 0 60031 3600.00000 0 -4359298.687 10565671.015 22820891.158 10 0 60031 4500.00000 0 -6811645.559 9194301.932 22807903.822 10 0 60031 5400.00000 0 -9328916.096 8010522.807 22352473.798 10 0 60031 6300.00000 0 -11846805.357 7036430.828 21463127.446 10 0 60031 7200.00000 0 -14298792.027 6282378.182 20156824.656 10 0 60031 8100.00000 0 -16618711.099 5746686.937 18458654.786 10 0 60031 9000.00000 0 -18743331.525 5415883.339 16401372.625 10 0 60031 9900.00000 0 -20614831.595 5265443.011 14024781.362 10 0 60031 10800.00000 0 -22183068.087 5261016.819 11374972.780 10 0 60031 11700.00000 0 -23407543.108 5360086.464 8503438.138 10 0 60031 12600.00000 0 -24258984.510 5513980.012 5466066.402 10 0 60031 13500.00000 0 -24720471.765 5670161.615 2322049.303 10 0 60031 14400.00000 0 -24788058.248 5774697.207 -867284.730 10 0 60031 15300.00000 0 -24470862.385 5774789.800 -4039683.654 10 0 60031 16200.00000 0 -23790623.070 5621274.501 -7133206.434 10 0 60031 17100.00000 0 -22780738.012 5270964.794 -10087452.968 10 0 60031 18000.00000 0 -21484826.243 4688747.937 -12844763.032 10 0 60031 18900.00000 0 -19954876.687 3849338.243 -15351358.752 10 0 60031 19800.00000 0 -18249062.601 2738611.982 -17558406.580 10 0 60031 20700.00000 0 -16429315.934 1354466.028 -19422976.749 10 0 60031 21600.00000 0 -14558765.599 -292836.824 -20908880.853 10 0 60031 22500.00000 0 -12699148.958 -2180850.687 -21987371.246 10 0 60031 23400.00000 0 -10908306.229 -4275649.552 -22637689.162 10 0 60031 24300.00000 0 -9237863.256 -6533020.265 -22847452.021 10 0 60031 25200.00000 0 -7731199.182 -8900094.749 -22612873.845 10 0 60031 26100.00000 0 -6421782.867 -11317352.356 -21938816.224 10 0 60031 27000.00000 0 -5331945.612 -13720908.134 -20838670.617 10 0 60031 27900.00000 0 -4472138.959 -16044991.287 -19334076.028 10 0 60031 28800.00000 0 -3840705.715 -18224510.644 -17454479.073 10 0 60031 29700.00000 0 -3424170.714 -20197600.924 -15236546.269 10 0 60031 30600.00000 0 -3198036.250 -21908044.840 -12723440.907 10 0 60031 31500.00000 0 -3128046.263 -23307471.642 -9963979.163 10 0 60031 32400.00000 0 -3171864.136 -24357242.306 -7011682.060 10 0 60031 33300.00000 0 -3281092.212 -25029944.771 -3923741.579 10 0 60031 34200.00000 0 -3403547.306 -25310438.797 -759920.592 10 0 60031 35100.00000 0 -3485696.306 -25196408.676 2418592.739 10 0 60031 36000.00000 0 -3475149.644 -24698402.195 5550354.846 10 0 60031 36900.00000 0 -3323108.366 -23839355.245 8574839.339 10 0 60031 37800.00000 0 -2986662.573 -22653622.461 11433590.872 10 0 60031 38700.00000 0 -2430845.277 -21185554.232 14071339.359 10 0 60031 39600.00000 0 -1630355.780 -19487678.903 16437054.319 10 0 60031 40500.00000 0 -570880.161 -17618564.844 18484920.310 10 0 60031 41400.00000 0 750047.178 -15640450.057 20175215.792 10 0 60031 42300.00000 0 2322678.280 -13616736.448 21475079.286 10 0 60031 43200.00000 0 4125200.018 -11609451.413 22359148.624 10 0 60031 44100.00000 0 6124392.461 -9676780.901 22810061.042 10 0 60031 45000.00000 0 8276772.711 -7870775.466 22818804.073 10 0 60031 45900.00000 0 10530179.715 -6235324.085 22384909.585 10 0 60031 46800.00000 0 12825737.110 -4804479.874 21516485.851 10 0 60031 47700.00000 0 15100115.089 -3601207.849 20230085.279 10 0 60031 48600.00000 0 17287999.235 -2636607.687 18550408.315 10 0 60031 49500.00000 0 19324664.844 -1909645.016 16509847.135 10 0 60031 50400.00000 0 21148549.872 -1407403.659 14147875.920 10 0 60031 51300.00000 0 22703718.726 -1105849.251 11510297.780 10 0 60031 52200.00000 0 23942112.759 -971072.897 8648361.642 10 0 60031 53100.00000 0 24825491.494 -960962.694 5617765.585 10 0 60031 54000.00000 0 25326981.136 -1027232.189 2477566.012 10 0 60031 54900.00000 0 25432163.212 -1117718.946 -710985.454 10 0 60031 55800.00000 0 25139655.734 -1178854.211 -3885653.301 10 0 60031 56700.00000 0 24461161.041 -1158196.785 -6984452.285 10 0 60031 57600.00000 0 23420977.591 -1006921.090 -9946878.197 10 0 60031 58500.00000 0 22054996.334 -682151.236 -12715108.939 10 0 60031 59400.00000 0 20409224.682 -149039.584 -15235150.401 10 0 60031 60300.00000 0 18537901.546 617500.485 -17457902.979 10 0 60031 61200.00000 0 16501284.499 1631482.613 -19340126.615 10 0 60031 62100.00000 0 14363203.892 2895012.866 -20845284.853 10 0 60031 63000.00000 0 12188488.284 4397968.180 -21944251.417 10 0 60031 63900.00000 0 10040370.417 6118201.285 -22615866.052 10 0 60031 64800.00000 0 7977983.027 8022262.950 -22847329.903 10 0 60031 65700.00000 0 6054049.099 10066610.407 -22634434.186 10 0 60031 66600.00000 0 4312862.209 12199250.385 -21981619.418 10 0 60031 67500.00000 0 2788639.592 14361747.171 -20901865.853 10 0 60031 68400.00000 0 1504314.315 16491511.200 -19416418.995 10 0 60031 69300.00000 0 470814.157 18524272.362 -17554357.086 10 0 60031 70200.00000 0 -313145.828 20396635.067 -15352010.278 10 0 60031 71100.00000 0 -860751.590 22048609.135 -12852243.721 10 0 60031 72000.00000 0 -1196275.167 23426012.050 -10103619.142 10 0 60031 72900.00000 0 -1353793.330 24482643.782 -7159451.431 10 0 60031 73800.00000 0 -1375495.517 25182145.110 -4076778.459 10 0 60031 74700.00000 0 -1309653.470 25499463.578 -915263.765 10 0 60031 75600.00000 0 -1208338.610 25421867.564 2263947.312 10 0 60031 76500.00000 0 -1124983.236 24949467.454 5399396.818 10 0 60031 77400.00000 0 -1111887.787 24095223.227 8430487.096 10 0 60031 78300.00000 0 -1217778.363 22884438.600 11298636.020 10 0 60031 79200.00000 0 -1485516.457 21353762.836 13948393.578 10 0 60031 80100.00000 0 -1950056.565 19549741.242 16328499.554 10 0 60031 81000.00000 0 -2636737.141 17526973.645 18392863.194 10 0 60031 81900.00000 0 -3559976.824 15345956.046 20101447.135 10 0 60031 82800.00000 0 -4722431.434 13070693.443 21421039.383 10 0 60031 83700.00000 0 -6114648.499 10766181.258 22325899.025 10 0 60031 84600.00000 0 -7715235.938 8495858.195 22798263.340 10 0 60031 85500.00000 0 -9491540.480 6319134.902 22828706.147 99